Location: *
(49.5667°N, 1.3667°W)
Time: 15:31:56
(UTC+00:00)

Cosmos 1934 Rocket - Pass Details

Date: 20 September 2019
Orbit: 938 x 999 km, 83.0° (Epoch: 21 October)

Event Time Altitude Azimuth Distance (km) Brightness Sun altitude
Rises 20:46:19 0° 353° (N) 3,626 7.6 -24.8°
Reaches altitude 10° 20:48:53 10° 359° (N) 2,683 6.7 -25.2°
Enters shadow 20:54:50 51° 74° (ENE) 1,193 4.2 -26.0°
